Volver al catálogo

IRIDIUM 126

ActivoComunicacionesPO
NORAD 42809·PAYLOAD·🇺🇸 United States

Lanzado Jun 25, 2017 desde Vandenberg Space Force Base

Loading…

Próximos Pases (próximas 24 horas)

TLE

ActualizadoSource: CelesTrak SupGP

Época: Sep 14, 2026, 21:29 UTC

1 42809C 17039G   26257.89548611 -.00000026  00000+0 -91311-5 0  2573
2 42809  86.3976 316.1672 0002350  95.3472  31.3548 14.34216814    19

Sigue IRIDIUM 126 en tiempo real con AllMySat

Download on the App Store